Regional Weather Roundup
Issued by NWS

Home | Current Version | Previous Version | Text Only | Print | Product List | Glossary Off
Versions: 1 2 3 4 5 6 7 8 9 10 11 12 13 14 15 16 17 18 19 20 21 22 23 24 25 26 27 28 29 30 31 32 33 34 35 36 37 38 39 40 41 42 43 44 45 46 47 48 49 50

629
ASUS43 KLSX 201957
RWRMO

WEATHER SUMMARY FOR MISSOURI
NATIONAL WEATHER SERVICE SPRINGFIELD MO
200 PM CST MON NOV 20 2017

NOTE: "FAIR" INDICATES FEW OR NO CLOUDS BELOW 12,000 FEET WITH NO
       SIGNIFICANT WEATHER AND/OR OBSTRUCTIONS TO VISIBILITY.
       CURRENT SKY AND/OR WEATHER CONDITIONS ARE NOT AVAILABLE FOR
       CHILLICOTHE AND FARMINGTON.

MOZ001>031-035>038-043-044-053-054-202100-
...NORTHERN AND WESTERN MISSOURI...

CITY           SKY/WX    TMP DP  RH WIND       PRES   REMARKS
KANSAS CTY INT MOSUNNY   60  30  32 S25G37    29.77F
LEE`S SUMMIT   SUNNY     61  29  29 SW26G38   29.81F
ST JOSEPH      SUNNY     61  27  27 SW28G40   29.72F
CHILLICOTHE      N/A     62  31  31 S20G29    29.77F

$$
MOZ066>068-077>081-088>096-101>105-202100-
...SOUTHWEST MISSOURI...

CITY           SKY/WX    TMP DP  RH WIND       PRES   REMARKS
SPRINGFIELD    SUNNY     61  28  28 S22G30    29.93F
JOPLIN         SUNNY     61  28  28 S21G36    29.92F
BRANSON        MOSUNNY   63  23  22 S9        29.99F

$$
MOZ032>034-039>042-045>050-055>058-069>072-202100-
...CENTRAL MISSOURI...

CITY           SKY/WX    TMP DP  RH WIND       PRES   REMARKS
COLUMBIA       NOT AVBL
JEFFERSON CITY SUNNY     63  26  24 SW15G24   29.88F
ROLLA          SUNNY     60  24  25 SW23G32   29.93F
SEDALIA        SUNNY     61  31  32 SW25G36   29.86F
WARRENSBURG    SUNNY     61  28  29 S26G37    29.83F

$$
MOZ051-052-059>065-202100-
...EAST CENTRAL MISSOURI...

CITY           SKY/WX    TMP DP  RH WIND       PRES   REMARKS
ST LOUIS INTL  MOSUNNY   61  26  26 SW17      29.93F

$$
MOZ072>076-082>087-097>100-106>115-202100-
...SOUTH CENTRAL AND SOUTHEAST MISSOURI...

CITY           SKY/WX    TMP DP  RH WIND       PRES   REMARKS
CAPE GIRARDEAU SUNNY     51  31  46 S17       30.07F
POPLAR BLUFF   SUNNY     54  30  40 S13       30.07F
WEST PLAINS    SUNNY     57  24  28 S14G20    30.01F

$$



USA.gov is the U.S. government's official web portal to all federal, state and local government web resources and services.